Location: Lombard
(41.8800°N, 88.0080°W)
Time: 17:55:44
(UTC-06:00)

Vanguard 3 - Pass Details

Date: 17 December 2023
Orbit: 508 x 3239 km, 33.4° (Epoch: 23 February)

Event Time Altitude Azimuth Distance (km) Brightness Sun altitude
Rises 18:59:06 0° 251° (WSW) 7,170 13.2 -28.2°
Reaches altitude 10° 19:04:01 10° 249° (WSW) 6,170 12.5 -29.1°
Maximum altitude 19:22:59 62° 175° (S) 3,001 9.8 -32.6°
Enters shadow 19:27:50 47° 124° (ESE) 3,069 9.6 -33.5°
